Theta_e
350 350 350 351 351 351 351 351 351 350 350 349 349 350 350 350 350 349 349 349 349 348 347 347 348 347 347 347 348 348 349 350 350 350 350 349 348 347 348 348 348 347 347 347 348 348 350 350 348 347 346 344 341 339 339 343 346 347 344 346 348 348 348 349 348 349 348 347 348 348 347 346 345 346 347 347 346 344 346 347 347 348 347 345 347
350 350 350 350 350 351 351 351 351 351 350 349 350 350 350 350 350 349 349 349 349 348 348 348 348 348 348 348 348 348 348 348 348 349 349 349 348 347 347 347 347 347 346 347 347 349 351 351 347 345 346 346 343 339 339 340 344 347 345 344 347 348 349 348 348 349 348 347 348 348 347 346 345 347 348 347 346 345 346 348 347 347 347 345 347
351 350 350 350 350 351 351 351 351 351 350 350 350 351 351 350 350 350 349 349 349 348 348 348 348 348 348 348 348 348 347 347 347 348 348 349 349 348 348 348 348 348 347 346 346 348 350 351 348 344 345 346 345 342 341 342 343 347 346 343 344 347 349 348 348 350 348 348 349 348 348 347 347 348 348 347 346 346 346 347 346 346 346 345 346
350 350 350 350 351 352 352 351 351 351 351 351 350 351 351 351 350 350 350 349 350 349 349 349 348 347 347 348 348 348 348 347 348 348 348 349 349 349 349 349 349 348 348 347 346 346 349 352 349 345 345 346 346 344 343 345 345 347 348 345 343 345 348 348 348 349 349 348 348 348 348 349 348 347 348 347 346 345 346 346 346 346 347 346 345
350 350 350 350 351 351 351 351 350 351 352 351 350 350 350 351 350 350 350 350 350 349 349 349 349 348 347 347 347 348 348 347 348 348 349 349 348 349 350 350 348 348 348 349 348 346 347 352 351 347 345 345 346 346 346 346 347 348 348 347 345 345 346 348 349 348 349 349 348 348 349 349 347 346 347 346 344 344 346 347 346 347 347 346 345
351 351 350 350 350 350 350 350 350 350 350 350 349 349 349 350 350 350 350 350 349 349 348 348 348 348 347 346 347 348 348 348 349 349 349 349 349 349 350 350 349 348 347 349 350 349 347 350 351 349 346 345 345 346 347 348 348 348 348 348 347 345 346 348 349 348 349 350 348 348 349 349 347 346 346 345 344 345 346 346 346 347 346 346 345
350 350 350 350 350 350 349 349 349 348 348 349 349 349 349 349 349 349 349 349 349 349 349 349 349 349 348 346 347 348 348 348 348 349 349 349 350 349 349 349 349 348 347 347 349 351 350 349 350 350 349 346 345 346 347 348 348 348 349 350 348 347 347 348 348 348 349 350 349 348 348 349 348 348 347 347 347 347 347 346 346 347 346 346 345
348 348 348 348 348 348 347 347 346 345 345 347 348 348 348 349 349 349 349 349 348 349 350 351 350 350 350 348 347 348 348 349 349 349 349 350 350 349 349 348 348 347 347 347 347 349 351 351 349 349 350 348 345 345 346 347 348 348 349 350 349 347 347 349 350 349 348 349 349 348 349 349 348 348 348 348 349 348 348 347 346 346 346 346 346
346 345 345 345 346 346 346 345 343 343 343 344 345 345 347 349 348 348 348 349 349 349 350 351 351 351 351 350 349 349 349 350 349 350 349 349 350 350 350 349 348 347 347 347 346 347 350 351 349 348 349 350 347 345 347 348 348 348 348 350 351 349 348 350 350 350 349 348 348 348 349 349 348 348 348 347 347 347 348 346 345 346 346 345 344
345 343 343 343 343 343 343 343 341 340 341 341 342 343 345 347 346 346 347 348 349 349 349 349 350 351 351 351 351 350 350 350 350 350 350 350 350 350 350 349 348 348 347 347 346 346 347 350 350 349 349 350 348 347 347 347 348 349 349 350 351 350 349 349 349 349 349 348 348 348 349 350 349 348 347 347 347 346 347 346 345 345 346 345 343
341 340 340 339 340 341 341 340 340 339 339 340 342 342 342 343 344 343 344 346 348 349 348 348 349 349 349 351 352 351 350 350 350 350 350 350 350 350 349 348 348 347 347 348 347 346 346 348 351 350 349 349 349 348 348 347 348 350 349 349 351 351 350 350 349 349 349 348 348 347 348 349 349 348 348 347 348 347 347 347 346 345 346 346 345
336 337 337 336 337 339 339 339 339 338 339 341 342 341 340 341 341 342 341 342 346 348 347 347 347 347 347 350 352 351 350 349 350 351 350 350 350 350 350 349 348 347 347 347 347 346 346 348 350 350 349 348 349 349 349 349 350 349 349 350 351 350 349 349 349 348 348 348 348 347 347 348 348 347 348 347 347 348 347 347 347 346 346 346 345
337 337 337 335 337 338 338 338 338 338 339 340 341 340 340 341 341 341 340 341 345 347 347 346 346 346 347 349 350 350 349 349 349 349 349 350 350 350 350 350 349 349 348 347 348 348 348 348 350 350 349 348 349 349 349 350 350 348 348 351 351 350 349 348 349 349 349 348 347 347 346 347 347 347 348 348 347 347 347 347 347 347 346 346 346
338 338 338 336 337 336 337 338 338 338 338 339 340 340 340 340 341 340 341 342 344 345 345 346 346 346 347 349 350 349 349 349 348 347 348 349 349 349 350 350 350 349 348 348 347 348 349 350 350 351 350 349 349 349 349 349 350 348 347 349 351 350 348 348 349 350 349 348 348 348 347 347 348 347 347 348 348 347 347 347 347 347 347 347 346
339 340 339 338 337 336 336 337 337 338 338 338 338 339 339 340 340 340 341 341 342 343 344 346 347 346 347 352 352 351 353 350 346 346 347 348 347 348 348 349 349 348 347 348 348 348 348 349 350 350 351 350 350 350 350 348 349 349 348 349 351 351 349 348 350 350 349 349 348 348 347 347 348 346 346 347 348 347 347 347 346 346 347 347 347
338 338 338 338 337 336 336 336 336 337 337 338 338 338 338 339 339 340 341 341 342 342 342 344 347 347 348 351 350 351 354 350 346 346 346 346 346 346 347 348 348 348 348 349 348 347 347 348 348 348 350 351 350 351 351 348 348 350 349 350 351 352 352 350 350 351 350 350 349 347 347 347 348 347 346 347 347 347 347 347 347 346 347 347 347
334 335 336 336 336 336 335 335 335 336 336 337 337 337 338 338 339 340 340 341 341 341 341 341 344 346 347 348 348 351 353 348 347 348 346 345 346 345 346 347 347 348 350 349 347 347 347 347 347 347 349 350 350 351 350 348 349 351 350 351 351 352 352 352 351 351 351 350 350 348 348 347 347 348 347 347 346 346 347 348 347 347 347 346 346
333 335 335 335 335 335 335 335 335 335 336 336 336 336 337 338 338 339 339 340 340 340 340 339 340 341 343 346 347 347 349 347 348 350 347 345 345 345 346 346 346 346 348 349 348 348 349 349 348 347 349 350 349 349 349 349 350 351 350 350 351 352 352 352 351 351 351 351 350 350 349 348 348 348 348 348 348 347 347 348 348 347 347 346 346
334 335 334 334 334 334 334 334 334 333 334 336 336 336 336 337 337 337 338 338 339 339 340 339 339 338 339 342 345 346 347 346 348 349 349 348 344 344 345 345 345 346 347 347 347 348 349 349 349 348 348 349 349 349 349 351 351 351 351 350 350 350 352 352 350 350 351 352 351 351 350 349 349 348 348 348 348 348 347 347 348 347 347 346 346
333 334 333 333 333 333 333 333 332 330 332 334 334 334 335 336 336 336 337 336 337 338 338 338 339 338 337 339 343 346 346 345 345 346 348 349 347 345 344 345 346 346 347 347 347 348 349 349 350 349 349 349 349 348 348 350 352 352 352 350 349 349 350 351 351 350 350 351 352 351 350 350 349 348 348 348 348 348 347 347 347 348 348 347 346
333 333 333 333 332 332 331 331 330 329 331 332 331 332 334 334 334 335 335 335 335 335 337 337 337 337 337 338 340 343 344 343 343 343 344 348 349 348 345 344 345 346 346 346 347 349 349 349 350 350 351 350 349 348 347 348 351 352 352 351 351 350 349 350 349 350 350 350 351 351 351 350 350 349 349 349 348 347 348 348 347 348 348 347 346
332 333 333 332 331 330 329 329 329 328 330 330 329 331 332 331 332 333 334 334 334 334 335 335 336 337 337 337 338 339 341 341 342 342 343 345 347 347 344 344 346 345 344 345 345 347 349 349 349 349 350 351 349 347 347 347 348 350 351 352 353 352 351 350 348 350 350 349 350 351 351 351 350 351 350 349 348 348 348 348 348 348 348 347 347
332 333 332 330 329 329 327 327 326 327 329 329 328 329 329 328 329 332 332 332 333 334 334 334 335 336 336 336 336 337 338 339 340 340 341 343 344 345 343 342 345 344 343 344 343 345 348 347 348 349 349 349 350 349 348 347 346 347 348 349 352 353 353 352 350 351 350 349 348 349 350 351 350 351 351 349 349 349 348 348 348 348 348 347 348
331 332 331 329 328 327 326 325 325 325 327 327 327 327 326 325 326 329 330 330 332 333 333 333 333 334 334 334 334 335 336 338 339 339 340 340 341 344 342 342 344 343 342 344 344 344 346 345 346 348 348 349 349 349 349 349 348 347 347 348 350 351 352 352 352 352 352 350 349 348 348 350 350 350 351 351 350 349 349 349 348 348 348 348 348
330 331 330 327 326 325 325 324 324 324 325 325 325 325 325 323 324 326 327 329 331 330 330 331 332 332 332 332 332 334 336 337 338 338 339 339 340 342 341 341 343 342 342 343 343 344 344 344 345 345 346 348 349 349 350 349 349 348 348 348 348 349 351 352 352 353 354 352 350 349 347 348 349 350 350 351 351 351 350 349 349 348 349 348 348
328 329 329 327 324 324 323 323 322 322 323 323 323 323 323 323 324 325 325 327 329 328 327 328 330 330 330 330 331 334 335 336 337 337 338 338 339 340 340 341 341 341 341 342 343 344 344 343 345 345 346 347 348 349 349 350 349 349 349 348 348 349 349 350 351 353 354 354 353 351 349 348 347 348 349 351 351 351 351 350 349 349 349 348 348
326 327 327 325 324 324 323 322 321 321 321 321 322 322 322 322 322 323 323 324 326 326 324 325 328 328 328 329 331 333 333 334 335 335 336 337 338 339 340 342 344 343 342 341 341 343 343 343 343 345 346 346 346 347 349 349 350 350 350 350 349 350 349 350 351 351 352 354 354 353 350 350 349 347 348 349 350 350 351 351 350 350 350 349 349
324 325 325 324 323 323 321 320 319 319 319 319 320 321 322 322 322 322 321 322 324 325 323 324 326 327 328 330 331 331 331 331 333 333 333 334 336 338 339 340 343 344 343 342 342 342 341 342 342 343 345 345 344 345 347 348 349 350 350 351 350 349 349 349 350 351 352 352 354 354 353 352 351 348 347 347 349 350 350 351 351 351 350 350 349
323 323 324 323 322 321 320 318 317 316 316 316 316 319 321 321 321 321 320 322 324 325 324 324 325 326 328 329 329 329 328 329 330 330 331 332 334 336 337 338 339 341 341 342 342 340 339 339 341 341 343 343 343 344 344 345 348 349 350 351 351 349 349 349 348 350 350 350 352 353 353 352 352 350 348 346 347 349 349 350 352 352 350 350 350
322 323 323 322 320 320 318 316 314 314 313 309 309 315 319 320 320 319 320 321 323 323 323 323 323 325 327 327 327 326 326 327 327 328 329 330 331 332 333 334 335 337 339 341 342 339 337 337 338 339 342 342 343 344 344 345 346 348 349 350 350 350 350 349 348 348 348 348 350 350 352 353 353 352 351 347 346 347 348 349 352 352 351 351 350
321 322 321 320 319 318 316 314 312 311 310 306 303 309 317 319 319 319 320 321 322 322 322 323 323 324 325 325 324 324 324 324 324 326 327 328 328 329 330 330 331 333 335 338 340 338 335 336 335 336 340 342 343 343 343 344 345 346 348 349 349 350 349 349 348 347 347 347 348 348 349 352 354 354 353 351 347 346 346 347 350 352 352 352 351
319 321 320 318 317 316 314 312 309 307 307 304 302 308 317 319 318 319 320 322 323 323 323 323 323 323 323 323 322 321 321 321 321 322 324 326 326 326 327 327 328 330 331 334 337 336 334 334 335 335 338 341 342 342 342 343 343 344 346 348 349 349 349 348 348 347 347 347 347 348 348 349 351 352 353 353 351 348 346 345 346 348 350 351 351
319 321 320 317 316 314 312 310 308 306 304 303 303 311 318 318 318 320 321 322 323 323 323 323 322 322 321 321 319 319 319 319 318 318 320 323 324 324 324 324 325 327 329 331 333 334 334 333 334 335 337 340 341 342 342 342 342 343 344 346 346 348 348 348 348 347 348 348 349 349 349 348 348 349 351 353 353 351 348 346 344 344 345 347 349
319 320 318 316 314 312 311 311 309 306 306 306 306 312 317 318 318 319 320 322 322 322 323 322 321 320 319 318 316 315 315 316 316 316 317 320 321 322 322 322 324 325 327 329 330 332 332 332 333 335 337 338 339 341 341 340 342 343 343 343 343 344 344 346 347 348 349 349 349 349 349 349 348 348 351 352 353 353 350 348 346 344 343 344 346
318 317 315 313 312 311 311 311 308 306 309 311 310 313 317 318 318 319 320 321 321 322 322 321 321 320 317 315 313 311 311 311 313 314 315 317 319 321 321 321 322 323 325 327 328 330 331 331 333 334 336 336 336 337 338 338 340 342 342 342 342 342 342 343 345 347 348 348 348 349 350 350 349 349 350 351 352 353 351 350 350 348 347 346 346
316 314 312 312 312 312 311 309 306 306 309 312 312 313 316 317 318 319 320 320 319 320 321 321 321 319 317 314 312 310 309 308 311 314 315 317 318 320 321 321 322 323 325 327 328 329 330 331 332 333 334 334 333 334 335 335 338 339 339 339 339 341 343 343 343 344 345 345 346 348 349 349 350 350 351 351 351 352 352 351 351 352 351 350 348
314 313 311 312 312 312 310 307 306 307 310 311 311 313 315 316 318 319 319 319 317 317 318 320 320 317 316 314 312 310 308 308 312 316 317 317 318 319 320 321 322 323 325 327 328 329 329 330 331 332 332 332 331 331 331 332 333 335 336 335 336 340 343 342 341 343 344 344 345 347 347 347 348 349 350 351 351 352 352 351 351 352 352 351 349
313 313 312 312 313 312 309 306 307 308 310 311 311 313 315 316 318 319 319 317 316 315 315 317 319 317 316 314 313 310 308 310 314 317 317 318 319 320 321 321 322 324 325 326 327 328 329 329 330 330 330 330 330 329 327 328 329 330 331 332 333 337 341 340 338 339 342 343 344 345 346 346 346 347 348 349 350 350 350 350 351 351 350 350 350
312 312 312 312 313 313 310 308 308 309 309 310 311 313 315 317 318 318 318 316 315 314 313 315 316 316 315 313 313 310 308 310 315 317 318 319 319 319 320 321 323 325 325 325 326 327 328 328 328 328 328 328 328 327 326 326 327 326 326 329 330 332 337 339 337 336 338 340 340 341 343 344 344 345 346 347 348 348 348 349 350 351 350 350 349
311 312 313 313 313 312 311 311 310 309 308 308 310 312 315 317 318 317 317 316 315 314 313 313 314 313 312 311 311 310 307 310 314 317 317 318 318 318 320 321 324 325 324 324 325 325 326 327 327 326 327 326 326 326 325 325 326 326 325 326 328 328 332 335 335 335 337 339 338 337 339 342 343 343 345 346 347 347 347 347 348 349 350 350 351
311 311 312 313 312 312 312 312 311 311 308 306 308 311 315 317 317 316 317 316 315 314 313 313 312 311 311 310 310 309 307 308 312 314 315 316 317 318 320 322 324 324 323 322 322 322 323 325 325 325 325 325 325 325 324 323 324 325 324 324 326 328 329 331 333 334 336 337 337 337 339 341 343 343 344 345 346 347 347 347 347 347 348 349 351
312 312 312 312 312 312 312 312 312 311 309 306 306 309 314 316 316 315 316 315 314 313 313 313 311 310 309 308 307 307 307 308 310 310 311 313 316 317 319 322 323 323 322 320 319 320 321 322 323 323 324 324 324 323 322 322 322 323 324 323 325 327 328 329 331 333 335 334 335 339 341 342 342 343 343 344 345 347 348 347 346 347 347 347 349
313 313 312 312 312 312 312 312 312 311 309 307 306 309 313 315 316 315 315 314 313 312 312 311 310 308 307 305 304 304 307 309 309 307 307 310 313 315 317 319 321 322 322 320 318 318 318 320 321 321 322 323 322 321 321 321 321 322 323 323 325 327 327 328 329 331 332 331 333 337 338 337 339 340 341 342 343 345 347 348 347 347 348 348 348
314 313 313 313 313 313 312 312 312 312 309 307 307 309 312 314 315 315 314 313 312 312 311 310 309 307 305 304 303 305 308 309 308 307 307 309 311 312 313 315 317 319 320 320 320 318 317 317 319 320 320 321 321 320 321 322 322 323 323 324 326 326 327 327 328 329 331 330 331 336 336 333 335 337 338 338 338 341 343 345 346 347 347 348 348
314 314 313 313 313 313 313 313 312 312 310 307 307 308 311 313 314 315 315 314 313 312 311 310 308 307 305 304 305 305 307 308 308 307 307 308 309 310 311 312 314 315 315 317 318 318 316 316 317 319 319 320 320 321 322 323 323 323 324 325 326 326 326 327 328 329 330 329 329 333 333 330 330 333 334 334 335 337 339 341 345 347 347 348 348
314 314 314 313 313 313 313 313 313 312 311 308 306 306 309 311 312 313 314 315 314 312 311 310 308 307 306 305 305 306 306 307 308 308 307 307 308 309 310 311 311 312 313 313 314 315 315 315 317 319 320 320 320 321 322 322 322 323 325 324 324 324 325 326 326 328 329 328 327 329 331 329 328 330 332 333 336 338 338 338 342 345 346 347 348
314 314 314 313 313 313 313 313 313 313 311 310 307 306 306 308 310 311 312 314 314 312 310 309 309 308 307 307 306 306 306 306 307 308 308 307 307 308 309 310 310 311 311 312 312 313 314 316 317 318 319 320 321 321 321 319 318 320 323 323 323 323 323 323 324 325 327 328 326 326 327 328 328 330 331 334 338 340 339 338 340 341 344 345 346
314 314 314 314 314 313 313 314 313 313 312 310 309 308 306 306 309 310 311 312 313 312 309 308 308 308 308 309 308 305 306 307 306 307 308 307 306 307 308 310 310 310 310 311 312 312 313 315 318 319 319 319 321 320 318 315 315 316 318 320 321 321 321 322 322 323 326 327 325 324 325 327 329 330 330 334 338 336 336 339 341 340 341 342 343
315 314 314 314 314 313 314 314 313 313 313 311 310 309 308 307 307 309 310 311 312 311 310 308 308 308 308 310 309 306 306 307 307 307 307 307 307 307 308 309 310 309 309 310 312 312 312 314 317 320 320 320 320 319 317 316 315 314 315 318 319 320 321 321 321 322 325 326 324 323 325 327 329 329 330 335 337 334 334 338 341 340 340 340 342
315 314 314 314 314 313 314 314 315 314 313 312 311 310 309 308 308 308 308 309 309 310 310 309 309 308 308 309 309 308 307 307 307 307 308 308 307 307 308 309 310 310 309 308 311 311 311 312 314 315 317 317 317 316 316 317 316 314 315 317 318 319 320 321 321 322 323 324 322 323 325 327 328 328 329 333 335 332 333 337 338 338 339 340 341
315 315 315 314 314 314 314 314 315 314 314 314 312 311 310 309 309 308 308 308 308 308 309 310 310 309 309 308 308 308 307 307 307 308 308 308 308 307 308 308 310 311 309 307 310 311 310 311 311 311 312 313 312 312 313 314 316 315 315 316 317 318 319 320 321 321 323 323 322 323 325 327 327 327 327 331 334 332 332 335 334 334 337 339 339
Wind_Speed
6 6 6 5 5 6 8 10 10 9 10 10 10 10 9 9 10 11 10 9 8 8 10 13 16 16 16 17 18 20 21 22 22 22 22 22 22 21 22 23 24 24 24 22 22 23 24 23 23 22 22 22 21 21 21 20 19 19 19 19 20 20 20 21 20 18 19 20 20 19 19 19 19 19 20 20 19 19 18 17 17 16 16 16 16
6 5 5 6 6 7 9 11 11 10 11 10 9 10 9 10 10 10 10 10 9 8 8 10 13 15 17 18 19 20 21 21 21 21 22 22 22 22 22 22 23 24 25 25 24 24 24 25 24 22 22 22 22 22 21 20 20 20 20 20 20 20 21 21 20 19 19 20 19 19 19 18 19 20 20 19 18 20 20 18 18 17 16 16 15
8 8 8 8 8 9 10 11 11 10 10 10 9 10 9 9 10 10 10 11 10 9 7 9 11 12 15 17 19 21 22 23 22 22 22 22 22 21 21 22 22 22 24 26 25 26 26 25 24 23 23 23 23 22 22 21 21 21 21 22 22 21 21 21 20 19 19 19 19 19 19 19 18 19 18 17 18 20 19 19 19 18 17 16 15
10 10 10 10 11 12 11 11 11 10 10 10 9 9 9 9 10 11 11 10 10 10 7 8 10 9 11 13 15 17 20 22 23 24 24 24 23 21 21 21 21 21 22 25 26 27 27 26 25 23 23 23 23 22 22 22 22 22 22 22 23 23 22 21 20 19 19 19 19 19 19 19 19 19 18 17 18 19 19 18 18 18 17 17 15
12 12 12 14 15 14 12 12 11 10 10 10 10 10 9 9 9 10 11 11 11 11 9 9 9 9 9 10 12 14 15 16 18 20 21 23 22 20 19 20 21 21 21 23 25 27 28 28 25 24 24 23 23 23 23 23 23 23 24 23 24 24 23 21 21 20 20 19 19 19 18 19 18 18 18 18 19 18 18 18 18 18 17 17 16
14 14 15 16 16 14 13 13 12 12 12 11 12 11 11 10 9 10 10 11 12 11 10 10 9 9 9 8 10 11 11 12 14 15 16 18 19 19 18 19 20 21 21 21 23 25 28 29 27 25 24 24 23 23 23 24 24 24 25 24 24 25 24 23 23 22 21 20 19 19 18 18 18 18 18 18 18 18 18 18 18 18 18 17 17
15 15 15 15 14 13 14 13 13 14 14 13 13 13 13 12 11 11 11 11 11 11 10 10 10 10 10 10 10 10 10 12 13 14 14 15 17 19 19 19 19 19 21 21 22 23 27 30 28 25 24 24 24 23 24 25 25 26 25 25 25 25 25 24 23 22 22 21 20 20 19 19 18 18 18 19 19 18 17 17 18 18 18 17 17
15 14 14 14 14 14 14 14 14 15 15 14 14 14 14 13 12 12 12 12 11 11 10 10 10 10 10 9 10 10 10 12 13 14 14 14 16 17 18 18 17 17 19 21 22 23 25 29 29 28 25 24 24 25 25 26 27 27 27 26 25 25 25 23 23 22 22 22 21 21 20 19 19 18 18 19 19 18 17 17 18 18 18 18 17
15 15 13 13 14 14 14 14 15 15 16 15 15 15 15 13 13 13 13 13 13 13 12 11 10 10 10 8 8 9 10 11 12 13 13 14 15 15 15 15 15 15 17 19 21 23 24 26 29 30 28 26 25 26 26 28 28 28 28 28 26 25 24 23 23 22 23 23 22 21 20 20 20 19 18 18 18 18 18 17 17 17 18 18 17
14 14 13 13 12 13 14 14 15 16 17 16 15 16 14 12 13 14 13 14 13 12 13 13 12 11 12 11 9 8 9 9 10 11 13 15 15 15 14 14 15 15 16 17 19 22 24 25 27 29 29 27 25 26 27 28 29 29 30 30 28 25 24 24 23 23 23 23 23 22 21 20 20 19 19 19 18 19 18 17 17 17 17 17 17
13 13 14 14 13 13 15 15 16 18 19 18 16 15 14 12 13 14 14 13 11 11 13 15 14 12 12 10 8 7 7 7 7 9 10 12 13 14 14 15 16 17 16 16 17 20 22 24 27 28 28 27 26 26 28 28 29 30 31 32 29 26 24 24 24 24 24 23 23 23 22 21 20 20 19 19 19 19 19 18 17 17 17 17 16
14 14 16 16 15 15 15 16 17 19 21 20 18 17 17 16 15 15 15 14 12 11 14 15 15 14 9 5 4 4 4 5 5 7 7 8 10 12 13 14 15 15 15 14 15 17 20 23 26 29 29 28 27 28 29 29 30 30 31 31 30 27 26 25 25 25 24 24 24 23 23 22 21 21 21 20 20 19 19 19 18 17 17 17 17
15 14 16 17 16 16 16 17 17 19 20 20 20 19 19 18 16 15 16 16 13 12 16 16 14 13 9 6 6 3 1 3 6 5 5 7 9 10 11 12 12 13 13 14 14 15 18 20 23 27 29 28 28 29 30 29 30 31 32 32 30 28 27 27 26 26 25 25 24 24 24 23 22 22 22 21 21 20 20 20 19 19 19 19 18
15 13 15 17 16 16 16 17 17 18 18 18 19 19 18 18 17 16 15 16 13 12 17 15 12 12 7 4 7 4 1 2 8 8 5 5 7 8 9 10 12 13 13 14 15 15 16 18 19 23 26 27 29 31 31 30 30 30 31 32 31 29 28 28 27 27 26 25 25 25 24 24 23 23 23 22 22 21 21 20 20 20 20 20 20
15 12 13 15 15 15 15 16 17 17 18 18 18 18 18 18 18 17 16 15 13 14 16 13 13 13 6 1 3 3 2 5 10 11 9 6 3 4 7 10 13 13 13 14 15 15 16 17 18 20 23 25 28 33 33 32 31 31 31 31 31 30 29 28 27 27 28 26 26 26 25 25 24 24 24 23 22 22 22 21 21 21 21 21 20
16 13 13 14 14 14 14 15 16 16 17 17 18 18 18 17 16 16 16 15 14 14 15 14 13 11 5 0 1 2 2 5 8 8 8 9 8 6 4 8 10 11 13 14 15 15 16 19 21 21 22 23 26 30 31 30 31 32 32 30 30 30 29 28 28 28 28 27 27 26 26 25 25 25 24 23 23 23 22 22 22 22 22 22 21
16 15 15 15 15 15 15 16 16 15 16 17 18 18 18 17 16 15 16 15 15 14 15 15 12 10 6 2 1 2 1 4 6 4 6 9 10 8 4 4 7 8 10 12 13 14 15 17 21 24 23 22 24 25 25 26 30 32 31 30 30 30 29 28 28 28 28 27 27 27 26 26 25 25 24 24 24 24 23 23 23 23 22 23 23
16 16 15 15 16 17 16 16 15 16 16 16 18 19 18 18 17 17 17 16 15 15 16 16 13 13 12 5 2 1 2 4 3 2 4 6 8 8 6 6 4 6 7 9 11 13 14 15 17 22 24 23 23 22 21 23 29 31 31 30 30 29 30 30 28 28 28 28 27 27 27 26 26 26 25 25 25 25 25 24 23 23 23 23 24
17 17 16 16 16 17 16 15 15 17 17 16 18 18 18 18 17 17 17 17 17 16 16 17 14 15 16 9 4 2 2 2 1 1 3 4 9 11 10 10 7 3 4 6 8 11 14 15 16 19 23 24 24 24 23 25 28 30 30 30 30 30 31 31 30 29 29 28 28 27 28 27 27 27 26 26 26 25 25 25 24 24 24 23 24
17 17 17 16 16 15 15 15 16 17 17 17 18 17 17 17 16 16 17 18 19 17 16 17 15 15 17 13 7 3 2 2 1 1 1 3 7 10 12 13 9 5 3 4 6 9 10 11 15 17 19 22 24 25 26 27 29 29 28 28 29 29 31 33 32 30 29 29 29 29 28 28 27 27 27 27 26 26 26 25 25 25 24 24 24
17 16 16 16 15 15 15 15 16 16 17 18 18 17 17 17 16 17 17 18 19 19 18 18 16 16 17 15 12 8 4 3 4 3 1 1 3 5 9 12 10 8 6 4 4 5 6 6 9 14 16 17 19 23 24 26 29 29 29 28 27 29 30 33 34 32 30 29 29 29 29 28 28 28 27 27 27 27 26 26 26 26 25 25 25
17 16 16 16 16 15 15 16 16 16 16 18 18 17 16 17 17 16 17 18 20 20 19 20 19 19 18 18 17 13 6 4 7 6 2 1 2 4 6 8 6 7 7 5 3 3 3 3 5 8 12 13 16 20 23 24 26 28 30 30 28 27 29 31 33 34 32 31 30 29 29 29 29 28 28 28 28 27 27 26 26 27 26 25 25
17 17 16 16 16 16 16 16 16 16 16 18 19 17 16 16 16 16 17 18 19 19 20 21 20 20 20 20 19 15 11 7 8 9 5 2 3 3 6 9 6 6 8 7 5 4 3 3 3 3 6 9 13 16 19 20 22 24 27 29 29 28 28 28 29 32 34 33 32 31 30 30 30 29 29 29 29 28 28 27 27 27 26 25 26
17 17 17 16 17 17 17 17 16 16 16 17 18 16 16 16 16 17 18 19 19 19 20 21 21 21 20 20 21 20 17 14 11 11 9 6 5 2 5 9 5 5 9 9 8 8 7 7 6 4 2 4 7 11 14 16 18 19 20 23 27 28 29 29 28 30 33 33 33 32 31 30 30 29 29 30 29 29 29 28 28 28 27 26 26
18 18 17 17 18 18 18 18 17 16 14 15 17 16 15 16 17 18 19 20 18 18 20 20 21 21 20 21 22 22 20 17 16 15 13 12 9 4 5 7 4 4 8 9 10 9 9 10 9 8 6 3 1 3 7 11 15 17 18 19 22 24 27 29 30 29 29 31 33 33 32 31 30 29 30 30 30 29 29 29 29 29 27 26 26
19 19 18 17 18 18 17 16 16 16 14 14 16 15 14 15 17 18 20 20 17 18 19 18 19 20 20 21 22 21 21 20 19 19 17 15 12 7 6 6 4 4 6 9 9 8 10 12 11 11 10 7 5 3 1 5 10 14 17 19 20 21 22 26 29 30 28 28 31 32 32 32 31 30 30 30 30 30 29 29 29 29 28 27 27
19 18 16 16 16 16 17 17 16 15 14 14 15 16 14 15 17 18 19 19 17 17 18 17 18 19 19 21 21 21 21 21 20 21 19 17 14 12 8 4 3 4 4 7 8 8 12 14 12 14 14 10 8 6 4 3 4 9 13 18 19 19 19 21 25 28 28 27 27 29 31 32 32 32 31 30 30 31 30 30 29 29 28 28 28
17 16 15 15 16 16 18 18 17 15 14 14 14 15 15 16 17 18 20 21 17 16 18 18 17 19 19 20 21 21 21 20 20 20 21 19 15 14 13 8 4 2 2 5 6 7 15 16 12 15 16 12 11 10 7 6 4 5 9 14 17 19 19 18 21 24 27 27 26 27 29 31 32 33 32 31 31 31 31 31 30 29 29 29 28
16 15 14 14 16 17 18 19 18 18 16 14 13 13 14 15 17 19 22 21 17 16 17 18 18 19 20 20 20 21 20 20 20 20 21 20 18 16 16 13 8 3 2 3 3 5 14 16 12 13 15 15 14 13 11 9 7 5 5 9 13 16 18 19 19 20 24 27 27 28 28 29 31 33 34 33 32 31 32 31 31 30 29 29 29
16 15 13 14 16 17 18 19 20 21 20 17 14 12 12 14 17 21 23 20 18 17 17 18 18 18 19 19 20 20 20 20 20 20 20 21 20 19 18 17 15 9 4 3 2 5 12 16 14 14 15 15 16 14 12 11 11 9 3 5 9 12 14 17 18 18 20 23 26 27 28 28 30 32 33 34 33 32 32 31 30 29 29 29 29
16 14 13 14 16 17 19 20 22 23 23 19 16 12 11 13 18 22 22 20 19 19 18 18 18 17 17 18 19 19 19 19 19 19 20 20 20 19 19 19 19 16 11 5 2 6 11 14 16 17 15 14 15 15 14 13 12 11 8 3 4 8 10 13 16 17 18 20 22 25 27 28 29 30 32 33 34 33 32 31 30 29 29 29 29
16 14 13 15 17 18 20 23 24 25 24 20 16 12 11 14 20 23 21 20 20 20 18 17 17 18 18 18 18 18 18 18 19 19 18 19 19 19 18 19 19 19 17 10 3 5 11 14 17 19 16 12 14 17 17 14 12 11 10 8 4 1 5 8 12 14 15 17 20 22 24 26 27 29 31 33 34 34 33 32 30 29 30 30 30
16 13 12 15 17 19 22 25 27 28 24 19 15 13 12 15 20 22 20 20 21 20 18 18 17 18 19 19 19 19 17 18 19 19 18 17 17 18 18 19 19 19 18 14 7 5 10 16 18 19 16 13 14 17 18 17 15 14 12 11 9 6 4 3 5 9 10 11 14 18 20 22 25 27 30 31 32 34 34 33 32 30 29 29 30
15 12 13 16 18 21 24 26 29 29 24 19 15 13 13 17 20 20 19 18 19 19 19 19 18 18 19 20 21 20 19 18 18 18 17 16 16 17 18 18 19 18 17 15 11 7 9 15 19 18 16 16 17 16 17 18 16 15 15 16 15 14 11 8 5 4 6 4 6 11 15 19 23 26 30 31 31 33 34 33 33 32 30 29 29
15 15 16 18 20 23 26 28 29 27 23 21 19 15 15 18 20 19 19 18 18 18 19 19 19 18 19 21 22 21 20 19 18 17 16 15 15 16 17 17 17 17 16 15 13 9 9 12 17 17 16 17 19 17 16 16 15 15 16 17 17 17 15 13 11 6 2 2 3 8 14 19 23 27 30 33 32 31 32 33 32 32 31 30 30
15 15 17 19 22 26 27 28 28 25 22 22 22 18 16 18 19 19 18 18 18 18 18 17 17 17 18 20 21 21 21 21 19 17 16 15 14 15 15 16 16 16 16 14 13 10 8 10 14 16 15 16 19 19 16 15 15 15 17 18 18 17 16 14 13 11 7 3 1 6 11 17 22 25 27 29 31 30 31 32 32 31 31 31 31
16 14 16 19 23 26 27 28 27 23 21 22 23 21 18 17 18 18 17 17 17 17 17 16 16 17 18 18 18 20 22 21 18 17 17 16 15 15 15 15 16 15 14 13 13 11 10 10 12 15 15 15 18 20 19 18 16 15 15 18 20 18 17 17 16 14 11 7 3 1 6 11 15 20 24 25 27 28 30 32 33 32 32 31 32
17 14 14 18 21 24 26 27 27 23 20 21 23 22 19 17 16 16 16 16 16 16 16 16 16 17 18 17 17 19 21 20 18 16 16 16 17 16 16 16 15 13 12 13 13 12 13 12 12 15 17 17 18 19 20 20 20 20 18 17 20 20 17 17 18 18 15 10 6 4 0 5 7 11 17 21 23 25 27 30 32 33 33 33 33
15 13 13 15 17 21 24 25 26 25 21 20 21 21 19 17 16 15 15 15 15 15 15 15 15 15 16 17 18 18 19 18 17 16 15 17 18 17 17 16 13 11 11 12 13 13 14 14 14 15 16 17 18 18 19 18 19 23 24 20 19 19 16 14 16 18 18 13 8 7 6 3 1 5 9 13 17 20 23 27 29 30 31 32 33
14 13 12 12 14 18 20 21 24 25 24 20 19 19 18 16 15 14 13 13 13 13 14 14 14 14 14 16 17 17 17 17 16 15 15 17 19 19 19 15 10 9 11 12 14 15 14 14 13 14 16 17 18 19 21 21 19 20 23 20 18 19 16 12 14 17 19 16 11 6 6 6 4 1 4 7 10 14 18 23 27 29 30 31 32
14 14 12 11 12 15 16 17 20 24 26 22 17 16 16 14 13 12 11 11 12 12 12 12 13 13 15 16 16 16 16 16 14 14 15 16 17 18 18 15 11 10 13 14 15 15 15 14 12 12 14 15 17 18 20 21 18 17 18 18 17 18 17 12 12 17 20 18 15 10 6 6 5 2 1 2 4 7 12 17 21 24 27 28 31
11 12 10 10 11 13 14 15 17 21 25 23 16 13 15 12 11 11 10 10 12 12 11 11 12 14 16 17 15 15 17 17 14 14 14 14 16 16 16 15 14 13 14 15 16 16 15 14 12 12 11 11 13 15 15 16 16 15 17 18 18 18 17 12 10 16 20 19 16 14 11 9 8 5 3 3 3 3 5 10 13 16 20 25 28
8 9 8 8 10 11 12 13 15 19 23 23 17 13 14 12 9 9 10 11 12 12 12 12 14 16 17 17 15 15 18 18 16 15 15 14 15 15 15 15 17 16 15 14 15 16 15 13 12 11 10 9 11 12 13 14 15 15 15 15 15 16 16 12 8 11 19 21 16 13 14 13 11 8 6 5 5 4 4 6 9 12 17 21 25
6 7 8 8 9 10 11 11 13 17 21 22 18 14 14 14 10 8 9 10 12 12 12 14 16 18 18 17 16 17 18 19 18 18 17 16 15 15 14 14 17 18 17 15 14 14 14 12 10 9 9 9 10 11 12 12 13 13 13 13 13 13 13 11 10 11 17 20 15 10 12 14 13 10 8 7 6 6 4 3 7 12 15 18 21
6 7 7 8 8 9 10 10 11 15 19 21 20 15 13 14 13 9 7 7 9 11 12 13 16 18 18 17 17 18 19 19 19 19 19 18 17 16 16 15 16 17 17 16 14 13 13 12 10 8 7 7 9 10 10 9 10 12 12 11 11 11 11 12 11 11 15 18 15 10 10 14 14 11 10 8 7 6 5 3 5 8 10 12 16
6 6 6 7 7 7 8 9 9 13 17 19 20 17 12 11 13 12 9 6 7 9 11 12 14 16 17 18 18 18 19 20 20 19 19 19 18 18 18 18 18 17 17 16 15 14 13 12 10 8 6 5 7 8 8 8 9 9 9 10 10 10 10 9 8 9 11 16 16 10 8 14 16 12 11 10 7 5 4 4 6 7 7 7 10
5 5 5 5 6 5 6 7 8 10 14 16 18 19 15 10 9 13 13 8 5 7 11 12 12 12 13 16 17 17 17 19 19 18 19 19 19 19 20 19 18 18 18 18 18 17 15 13 11 9 6 5 5 6 8 10 11 9 7 6 7 9 9 8 7 8 9 13 17 13 8 13 17 14 12 11 10 10 9 5 2 6 8 7 6
4 4 3 4 5 4 4 5 6 8 11 13 15 17 17 14 9 10 13 11 7 6 9 11 11 10 10 12 14 14 15 18 19 18 17 17 18 19 20 19 19 18 17 17 17 18 17 16 15 12 7 4 5 8 12 14 14 12 7 5 6 9 11 10 9 10 10 12 17 16 11 12 16 16 13 9 10 13 13 9 5 2 2 5 6
4 4 4 4 4 4 3 4 5 7 9 10 12 14 15 15 11 8 10 12 9 6 6 7 10 12 12 11 11 12 14 17 18 18 17 16 17 18 18 17 18 18 18 17 16 17 17 17 18 16 12 10 10 12 13 15 17 17 12 9 9 9 9 8 8 10 10 10 15 17 12 11 14 17 14 7 8 13 14 10 9 9 6 2 1
4 4 5 5 4 4 3 3 3 5 6 8 11 12 12 13 13 10 8 9 9 9 8 7 9 11 13 13 11 10 13 17 18 17 16 16 16 17 16 15 16 18 19 19 17 17 16 17 18 17 15 14 14 13 12 12 15 17 15 12 9 8 7 6 6 9 7 8 15 16 11 11 14 16 15 7 6 11 14 11 12 13 11 8 5
5 5 6 4 2 4 5 3 3 4 4 5 8 11 11 11 11 10 8 7 8 10 11 9 8 9 11 14 15 11 12 16 17 16 15 14 15 15 14 14 15 15 17 18 17 16 16 17 17 17 16 15 14 14 13 12 12 14 14 11 8 8 9 8 7 8 4 5 13 15 11 11 13 15 14 8 3 7 11 11 12 14 12 11 9
Wind_Direction
316 310 316 328 343 355 359 354 349 342 339 343 339 338 341 333 325 324 318 308 303 288 271 253 241 240 245 248 249 249 248 249 249 248 249 249 246 240 237 239 240 239 238 234 229 226 223 216 210 208 211 214 217 215 212 209 208 211 212 212 212 211 213 215 212 203 201 204 205 206 207 206 205 206 206 206 210 208 207 208 199 198 205 196 191
10 9 13 19 22 22 15 2 356 349 346 348 341 339 339 336 334 332 329 324 310 294 279 263 250 243 244 246 247 248 249 249 249 248 250 249 245 242 242 241 241 241 238 234 228 225 224 220 211 207 210 213 216 214 213 213 211 212 212 212 212 212 213 217 215 204 200 202 203 204 205 206 203 202 202 201 207 206 202 206 203 201 205 198 192
31 30 32 32 27 25 17 4 359 356 355 353 345 342 338 335 339 341 337 332 322 307 282 267 264 252 249 251 249 248 249 249 248 250 251 249 245 244 245 243 242 241 237 232 227 224 224 222 215 208 208 212 214 214 213 213 212 212 213 212 212 212 213 215 214 206 202 201 201 203 201 202 201 199 197 195 204 207 201 202 204 203 203 200 195
28 28 29 30 26 21 14 7 5 3 2 0 355 349 345 340 338 341 337 330 327 326 319 291 280 267 257 258 257 253 249 247 246 247 248 248 246 245 243 240 239 238 237 233 228 225 223 222 218 212 210 211 213 214 214 213 212 212 213 213 212 212 213 212 212 208 206 203 202 205 200 198 199 198 194 192 201 206 200 199 202 203 203 200 195
32 33 36 37 34 27 20 17 15 12 10 8 4 358 356 352 340 337 333 331 332 330 325 309 300 290 273 264 261 256 253 248 244 244 245 245 244 242 241 237 234 234 235 234 230 226 222 221 219 215 213 213 213 212 214 215 213 213 212 213 212 211 212 211 209 208 207 206 204 204 200 197 198 198 195 193 198 201 196 196 198 201 203 200 197
36 33 36 40 37 31 26 24 22 20 16 12 10 5 2 359 347 338 333 331 333 331 324 318 314 304 296 284 263 253 251 247 244 245 242 239 240 242 242 238 236 234 233 232 230 227 223 221 219 218 216 215 216 214 215 218 216 215 214 212 211 211 211 210 209 208 207 206 205 204 201 199 199 198 195 194 197 198 195 196 198 199 200 200 197
41 34 33 36 36 32 29 27 24 20 16 12 8 4 0 359 353 343 341 337 331 331 326 321 320 313 311 301 280 264 255 252 249 246 241 237 239 243 243 239 238 236 234 232 229 227 222 220 219 219 218 217 218 216 216 219 219 218 216 212 210 210 210 209 209 208 207 207 206 205 202 200 199 197 195 191 193 197 196 196 196 196 197 199 196
50 45 42 42 41 37 33 30 26 22 18 14 8 2 355 354 355 347 344 345 340 337 331 322 320 319 317 307 290 276 264 258 253 245 239 237 237 238 239 237 235 234 234 233 230 227 221 218 219 220 220 218 218 219 219 220 222 221 218 215 210 210 210 208 207 205 207 208 207 207 203 201 200 199 197 193 192 195 196 195 196 197 196 197 195
56 48 46 45 43 40 36 31 27 23 20 16 12 6 358 352 356 353 344 342 343 343 341 332 323 315 313 316 306 285 271 262 255 247 239 238 237 234 235 237 235 233 235 235 231 227 222 219 221 221 221 220 218 220 221 220 222 223 222 218 212 210 210 209 207 206 207 208 208 208 205 202 202 202 201 199 196 196 197 197 197 197 195 197 196
53 43 41 41 42 41 37 33 30 25 20 14 11 10 11 5 2 5 355 344 341 343 343 338 330 315 306 312 315 298 282 273 262 253 243 239 240 238 239 243 243 242 242 242 234 227 223 220 221 223 223 223 221 220 223 222 221 222 223 220 214 210 210 210 208 207 208 208 208 208 207 206 205 204 204 203 201 200 200 199 198 196 194 197 198
39 37 38 38 41 42 38 34 30 27 23 21 26 28 29 25 18 19 13 359 349 347 348 341 334 325 311 309 313 309 302 294 275 262 252 244 246 246 245 246 247 248 247 244 236 225 223 221 220 223 223 223 223 222 225 224 220 222 225 221 214 210 211 211 210 208 208 208 208 208 208 209 208 207 207 205 204 203 203 202 200 197 195 198 198
35 36 38 38 40 41 37 33 29 30 31 34 43 42 34 30 28 26 20 14 7 359 358 349 340 341 344 345 334 317 315 332 322 288 268 254 249 245 243 242 242 246 245 241 235 222 220 223 222 224 224 222 223 223 224 223 221 222 226 225 217 211 211 212 211 210 209 208 208 210 210 210 211 211 210 208 206 205 204 203 203 200 199 202 201
37 38 39 40 40 38 34 33 31 32 36 40 43 40 34 33 32 30 24 21 19 9 5 360 351 351 360 16 15 3 317 19 12 336 290 266 253 243 237 236 237 242 245 239 233 226 223 224 223 224 225 223 223 223 223 224 224 223 224 226 221 213 211 213 212 212 210 209 209 211 211 210 212 213 212 210 209 208 206 204 204 203 201 203 204
36 38 40 39 40 38 33 33 31 30 33 39 40 37 36 37 34 32 30 26 25 15 8 7 359 348 340 356 6 6 301 11 30 31 4 301 270 258 247 247 249 247 247 240 232 231 228 226 224 225 227 227 225 223 221 222 226 227 224 224 222 214 211 212 213 213 211 210 210 211 210 209 211 213 213 211 209 208 207 206 206 206 204 204 205
33 35 38 38 44 44 36 31 28 25 28 34 36 33 31 32 32 31 30 28 26 18 14 11 359 351 344 348 358 358 337 349 18 35 28 5 335 286 257 252 253 244 242 242 236 232 228 223 223 225 229 228 224 222 221 219 223 228 226 224 222 215 212 212 213 214 212 210 210 211 210 208 210 213 213 212 210 209 209 208 208 208 207 206 206
44 45 47 48 52 47 36 28 26 26 27 32 34 31 29 27 28 29 30 27 20 18 20 15 4 1 2 302 326 20 10 334 352 24 26 13 20 14 294 258 253 240 236 237 234 232 228 225 226 229 230 228 225 224 223 220 223 228 226 224 223 216 212 212 213 214 213 211 210 211 211 209 210 213 212 212 213 212 212 210 209 208 209 210 210
53 54 53 52 50 41 33 29 29 32 33 37 38 34 32 31 29 30 33 29 17 14 20 19 14 10 2 338 10 38 344 318 333 13 16 357 6 19 4 294 261 244 244 241 232 229 228 227 229 230 229 229 228 228 226 224 225 228 225 223 225 220 213 212 213 214 215 213 212 212 212 210 209 211 212 212 212 213 214 213 211 210 211 212 213
54 56 53 49 44 38 34 33 35 39 39 42 42 38 34 33 32 32 33 32 24 16 13 16 21 18 11 358 351 3 292 327 346 349 350 349 359 2 359 357 314 248 250 250 239 231 227 227 227 227 226 227 230 230 229 226 224 225 225 223 225 223 217 214 214 215 216 215 213 213 212 212 210 210 211 211 211 212 213 214 213 213 214 214 214
55 53 48 43 39 37 38 42 43 42 41 41 40 36 33 33 33 33 32 32 29 20 10 12 17 19 22 20 1 347 312 346 23 322 328 336 352 353 353 4 2 299 264 259 252 242 232 226 226 226 223 223 227 229 229 226 224 224 224 224 225 225 222 219 217 216 216 215 214 214 214 213 212 210 211 211 211 212 213 214 216 217 217 216 214
52 46 43 41 41 42 45 47 45 42 41 40 37 34 35 35 35 33 34 35 31 23 16 17 15 16 27 34 29 15 347 9 30 335 314 299 336 351 354 358 4 4 349 309 285 266 251 238 230 231 228 224 225 227 229 227 225 225 225 225 226 225 223 222 220 217 216 216 215 216 216 215 214 212 211 211 212 212 212 213 216 218 218 217 215
50 50 51 51 52 54 52 48 44 42 40 38 37 37 38 38 36 33 33 35 35 31 29 30 30 27 32 40 42 41 42 37 25 357 298 268 316 332 343 351 0 10 7 342 310 281 272 266 243 235 232 228 226 227 230 230 227 226 227 227 224 224 222 223 223 220 217 216 216 217 217 216 216 214 213 212 213 213 212 212 214 217 219 218 217
56 60 63 64 64 59 53 48 42 41 39 37 38 40 42 39 34 34 33 34 36 39 41 41 44 46 45 47 46 43 42 36 24 11 345 257 296 303 327 343 348 358 4 2 344 308 290 302 272 245 234 228 222 221 226 230 230 228 230 230 225 223 221 221 224 222 218 216 216 217 217 216 217 216 215 215 214 213 213 213 213 216 219 219 219
60 64 70 70 66 60 55 50 44 41 39 36 37 39 42 38 31 33 34 36 39 44 47 47 50 53 50 48 45 42 40 35 26 25 23 334 319 311 326 340 343 347 358 11 25 32 41 22 347 274 244 234 225 223 226 231 232 231 232 232 229 227 224 223 224 223 220 218 217 218 219 218 218 217 217 217 215 214 213 213 215 216 218 218 218
59 64 73 70 64 63 59 55 50 45 40 36 36 39 42 38 33 32 33 39 46 49 49 48 50 51 47 45 43 43 41 37 33 33 33 21 7 336 323 338 344 344 352 8 22 33 49 45 32 24 324 252 235 232 234 237 237 233 231 232 231 231 231 231 229 226 224 221 218 218 220 220 220 218 218 219 217 215 213 213 215 217 217 216 217
56 64 73 70 67 66 62 57 52 46 42 35 33 38 43 39 35 34 34 41 49 50 48 49 51 49 47 45 43 44 43 42 41 37 34 29 21 2 336 341 337 337 354 4 8 18 34 34 31 27 19 0 293 241 234 238 239 235 231 231 231 232 232 233 233 230 227 225 221 219 219 220 222 221 220 220 219 217 216 214 215 216 216 216 217
57 64 72 72 68 64 59 54 48 44 41 34 31 38 45 42 37 34 35 41 48 47 42 44 50 49 47 45 43 46 47 48 47 42 38 30 16 358 340 340 346 352 359 3 7 17 16 17 26 27 24 28 28 28 268 239 238 235 231 231 232 231 230 230 231 231 230 229 225 221 220 220 221 223 223 221 220 220 219 217 216 216 216 216 217
58 63 69 68 62 56 51 45 39 36 34 29 29 34 40 41 38 35 34 36 42 45 40 41 49 49 47 46 48 50 49 50 49 45 42 35 22 13 5 349 349 0 359 357 6 18 8 5 19 24 23 27 26 22 6 326 262 241 231 229 231 230 227 227 228 229 231 231 228 225 223 221 220 223 224 222 222 222 222 221 218 216 216 217 217
55 61 67 63 56 50 44 38 33 28 26 21 21 29 36 39 39 37 33 31 37 48 47 47 52 51 49 52 54 53 50 52 53 48 45 42 38 32 24 14 1 357 359 354 359 11 7 4 8 16 19 18 15 16 14 8 341 274 239 229 230 230 229 229 225 225 228 231 230 229 227 223 221 222 224 224 223 222 223 223 220 218 217 218 218
51 60 69 65 56 48 40 36 32 29 26 16 11 22 34 39 42 36 31 35 47 57 54 53 53 51 53 57 57 53 51 53 53 50 47 45 45 41 31 24 20 16 7 3 357 352 1 5 5 6 14 17 17 20 23 23 16 348 258 230 225 226 228 229 226 223 224 225 227 229 230 227 222 221 223 224 224 223 223 223 221 219 218 219 218
50 60 71 66 56 47 39 35 31 28 25 17 9 19 31 37 42 37 36 46 59 61 59 56 53 51 53 55 52 50 50 52 51 49 47 46 44 42 39 35 31 25 5 353 9 353 356 4 7 1 0 9 18 23 26 26 22 22 5 233 219 220 228 231 229 227 226 226 226 229 232 231 226 222 222 224 225 226 225 224 222 221 220 220 220
46 64 75 65 56 48 39 34 28 24 21 15 13 23 34 35 38 39 44 56 61 59 59 57 54 54 53 51 47 46 46 47 49 48 46 45 42 40 39 38 35 28 16 7 15 5 1 359 4 9 4 1 13 21 27 27 19 22 27 12 214 214 227 233 232 230 229 230 231 232 233 232 230 229 227 225 225 227 227 226 224 223 223 223 222
49 74 78 62 54 46 37 32 27 23 18 13 14 30 45 40 39 44 52 60 61 60 60 58 57 58 57 55 48 43 41 41 42 43 42 43 41 39 36 34 34 30 22 18 4 352 7 7 8 17 18 12 18 23 27 29 19 16 25 30 40 205 231 231 228 228 229 229 231 234 235 234 233 234 233 229 226 226 228 228 227 226 227 226 225
54 80 77 59 50 43 38 33 28 24 21 16 19 37 50 44 44 51 58 60 59 60 62 60 59 58 59 57 49 42 40 39 37 37 37 38 38 37 35 30 30 29 22 15 1 337 4 17 20 26 31 30 29 28 30 33 31 27 31 35 36 30 3 309 239 230 233 239 238 235 233 233 232 234 236 232 227 226 227 228 229 229 230 230 229
61 81 72 58 50 44 39 33 27 25 26 26 28 40 47 44 46 55 60 59 58 61 64 63 61 60 56 52 47 42 40 38 36 34 31 33 36 35 33 29 24 25 24 15 7 348 349 8 21 31 39 39 37 36 36 37 37 39 41 39 34 28 21 12 354 264 237 249 257 239 230 228 228 228 230 230 228 227 227 227 229 230 231 231 232
72 80 68 57 51 44 37 31 26 27 33 35 35 42 44 43 48 57 61 61 62 64 65 63 62 60 55 50 43 39 37 36 34 32 28 28 32 32 31 29 22 20 23 20 13 358 339 356 18 30 38 41 40 40 41 42 44 45 44 40 33 28 25 22 22 13 287 245 253 237 226 224 224 224 225 224 224 226 227 227 228 228 228 229 231
77 77 66 57 49 42 36 30 26 29 37 36 37 43 45 45 52 61 66 66 65 67 66 63 61 59 56 50 43 36 33 32 31 32 31 27 27 28 27 27 22 17 19 23 22 12 350 356 21 34 42 44 42 40 40 43 49 51 47 40 36 35 35 34 34 34 29 24 273 234 222 221 224 224 225 225 225 225 227 228 229 228 226 227 228
72 73 63 56 47 41 37 34 30 33 37 34 34 40 45 49 57 66 71 69 65 66 66 66 64 61 57 51 42 36 32 30 31 31 29 25 23 23 22 21 20 17 19 25 28 30 23 17 27 38 44 44 41 40 40 38 41 45 46 43 40 42 48 49 46 43 38 38 40 242 217 214 219 223 226 229 228 227 230 232 232 231 229 229 230
66 71 64 56 48 41 40 38 35 36 36 31 31 36 42 50 61 71 74 70 66 64 63 67 68 62 55 47 38 34 31 30 32 28 23 22 20 18 16 15 15 17 26 31 34 42 43 41 43 42 40 39 37 36 37 38 38 34 31 34 38 43 51 50 45 43 39 36 34 30 70 211 217 219 223 228 228 228 231 233 235 235 234 232 232
58 70 72 62 50 43 42 39 35 35 34 28 27 32 42 55 65 70 69 64 62 61 58 63 68 62 51 40 33 30 29 30 32 29 20 15 15 16 14 13 16 26 35 38 42 48 50 49 48 43 40 37 34 30 29 35 40 33 26 21 21 29 38 40 34 33 33 33 28 25 32 30 255 217 216 223 225 227 230 231 233 236 238 237 235
55 68 76 65 52 45 41 36 34 34 34 29 25 30 45 62 69 67 64 57 55 57 56 57 59 53 41 35 31 27 26 31 34 31 22 13 13 17 16 15 26 43 47 49 50 52 53 50 45 42 40 35 30 25 24 28 28 22 20 17 9 11 20 31 32 26 23 28 32 20 16 28 36 209 227 231 227 229 231 230 229 231 234 238 238
66 68 68 55 47 44 40 34 32 32 33 31 26 31 46 64 74 70 66 60 54 53 56 56 51 41 33 30 29 25 26 33 37 34 27 20 19 19 18 23 40 57 60 60 56 54 54 47 37 35 37 34 28 23 22 24 21 10 11 15 11 8 12 24 38 30 21 22 30 30 17 19 30 34 273 270 248 240 236 231 230 230 231 234 235
80 71 65 54 48 46 40 34 31 33 34 30 27 36 48 63 79 75 66 60 55 53 56 56 47 37 30 24 22 26 27 31 36 35 31 30 28 23 23 33 47 62 70 66 58 55 53 45 36 32 33 31 28 24 18 14 13 10 10 12 10 9 12 18 28 28 23 19 23 34 35 24 18 13 357 353 343 304 259 237 230 230 231 230 230
84 72 69 62 54 48 42 34 32 36 35 30 30 40 51 63 79 75 63 57 55 54 55 54 45 36 29 21 21 31 31 28 32 34 34 39 39 31 28 34 43 52 63 65 58 52 47 43 39 34 29 21 18 20 15 6 6 6 6 10 12 8 8 7 354 4 16 14 14 31 37 31 29 24 7 1 357 338 296 256 233 229 231 229 226
88 74 67 58 53 49 42 35 35 39 37 32 35 44 52 60 72 79 70 61 57 56 53 49 43 36 31 28 31 36 33 29 31 32 32 39 48 46 42 42 42 43 47 52 52 45 37 34 33 29 23 13 11 18 15 5 2 2 2 13 21 10 0 353 337 343 4 7 9 29 35 30 32 29 17 7 358 350 330 265 223 223 229 228 225
82 75 66 53 48 46 41 37 37 42 39 34 37 45 51 57 64 71 76 71 66 63 55 47 43 38 37 39 38 36 34 31 28 28 29 33 43 52 54 52 50 47 46 48 49 43 32 27 23 20 15 8 10 18 18 11 9 10 12 20 24 12 358 351 348 353 4 8 11 21 25 21 22 24 23 12 353 344 327 267 219 220 228 227 227
67 65 59 47 42 38 39 39 38 43 42 36 37 44 47 55 62 63 68 83 78 64 55 47 41 39 41 43 37 30 30 30 24 22 23 26 34 44 49 51 50 49 47 46 46 42 35 29 20 9 7 16 15 14 24 31 26 22 26 27 23 16 5 358 7 14 12 13 14 14 12 11 9 9 18 21 24 22 349 281 242 233 232 227 227
52 44 43 40 37 31 35 41 44 49 46 39 40 45 44 47 62 61 60 75 91 68 55 43 33 31 35 37 33 24 22 24 22 18 17 21 28 36 41 43 43 43 44 41 39 38 37 38 35 17 2 18 30 33 44 43 32 28 36 30 23 20 7 358 12 26 21 15 14 14 5 3 6 6 8 23 47 54 46 34 284 248 241 235 232
41 24 23 22 21 23 33 41 48 56 53 44 43 47 46 47 61 65 58 64 84 79 55 38 25 19 16 19 23 19 16 17 17 15 15 17 24 30 33 36 37 37 39 40 40 42 46 52 52 40 25 47 74 61 50 42 33 28 25 12 10 9 3 359 1 12 20 14 10 11 2 356 7 8 4 26 56 46 42 55 60 34 252 247 245
38 32 30 21 16 16 21 34 44 56 61 52 45 47 48 48 55 62 58 60 71 73 49 23 12 12 11 9 11 10 9 11 11 12 12 13 19 25 27 33 35 32 31 34 38 44 54 64 64 56 51 63 72 58 42 36 31 27 24 25 20 8 7 12 356 353 9 13 5 6 2 359 10 9 2 28 63 34 29 51 63 58 61 53 263
34 33 24 24 36 37 32 32 30 41 59 60 49 46 47 46 49 53 52 54 57 50 34 9 353 358 6 10 9 1 2 6 7 8 9 6 10 17 22 28 31 30 28 27 27 35 51 64 67 65 63 62 59 49 36 30 27 25 28 34 29 18 25 31 355 341 358 13 4 2 2 4 13 13 7 15 58 37 33 49 53 48 52 55 54
14 8 0 358 26 38 38 42 15 6 41 65 52 44 44 42 42 45 44 42 37 31 29 16 350 341 351 3 8 4 358 0 2 3 3 2 5 15 25 27 26 28 29 25 23 30 44 51 53 55 57 57 51 42 35 32 27 25 30 34 30 27 29 26 9 358 352 356 0 1 1 2 8 15 14 9 16 28 33 44 41 36 43 53 52